User: anonymous   Login
Location: Unspecified
(0.0000°N, 0.0000°E)
Time: 21:29:34
(UTC+00:00)
Language:

TURKSAT 3U - Orbit

View from above orbital plane
View from above orbital plane
View from above satellite
View from above satellite

Ground track
Ground track

The orbit data is extracted from the following two-line orbital elements,

1 39152U 13018C   18344.24701005  .00000223  00000-0  35914-4 0  9995
2 39152  97.9252  70.4591 0018224  88.3683 271.9616 14.80597631303636
Epoch (UTC): 10 December 2018 05:55:41
Eccentricity: 0.0018224
inclination: 97.9252°
perigee height: 614 km
apogee height: 640 km
right ascension of ascending node: 70.4591°
argument of perigee: 88.3683°
revolutions per day: 14.80597631
mean anomaly at epoch: 271.9616°
orbit number at epoch: 30363

The dashed part of the orbit path shows where the satellite is in the earth's shadow,  

DLR